Time,TemperatureF,DewpointF,PressureIn,WindDirection,WindDirectionDegrees,WindSpeedMPH,WindSpeedGustMPH,Humidity,HourlyPrecipIn,Conditions,Clouds,dailyrainin,SoftwareType,DateUTC
2013-05-07 00:03:00,58.0,57.0,29.83,North,0,0.0,0.0,95,0.00,,,1.05,,2013-05-07 04:03:00,
2013-05-07 00:12:00,58.0,57.0,29.83,North,0,0.0,0.0,95,0.00,,,1.05,,2013-05-07 04:12:00,
2013-05-07 00:23:00,57.0,56.0,29.83,North,0,0.0,0.0,95,0.00,,,1.05,,2013-05-07 04:23:00,
2013-05-07 00:33:00,57.0,56.0,29.83,North,0,0.0,0.0,95,0.00,,,1.05,,2013-05-07 04:33:00,
2013-05-07 00:42:00,57.0,56.0,29.83,North,0,0.0,0.0,95,0.00,,,1.05,,2013-05-07 04:42:00,
2013-05-07 00:53:00,56.0,55.0,29.83,North,0,0.0,0.0,95,0.00,,,1.05,,2013-05-07 04:53:00,
2013-05-07 01:02:00,56.0,55.0,29.84,North,0,0.0,0.0,95,0.00,,,1.05,,2013-05-07 05:02:00,
2013-05-07 01:12:00,56.0,55.0,29.84,North,0,0.0,0.0,95,0.00,,,1.05,,2013-05-07 05:12:00,
2013-05-07 01:22:00,56.0,55.0,29.83,North,0,0.0,0.0,95,0.00,,,1.05,,2013-05-07 05:22:00,
2013-05-07 01:32:00,55.0,54.0,29.83,North,0,0.0,0.0,95,0.00,,,1.05,,2013-05-07 05:32:00,
2013-05-07 01:42:00,55.0,54.0,29.83,North,0,0.0,0.0,95,0.00,,,1.05,,2013-05-07 05:42:00,
2013-05-07 01:52:00,55.0,54.0,29.83,North,0,0.0,0.0,95,0.00,,,1.05,,2013-05-07 05:52:00,
2013-05-07 02:02:00,55.0,54.0,29.83,North,0,0.0,0.0,95,0.00,,,1.05,,2013-05-07 06:02:00,
2013-05-07 02:12:00,55.0,54.0,29.83,North,0,0.0,0.0,95,0.00,,,1.05,,2013-05-07 06:12:00,
2013-05-07 02:52:00,54.0,53.0,29.82,North,0,0.0,0.0,96,0.00,,,1.04,,2013-05-07 06:52:00,
2013-05-07 03:02:00,54.0,53.0,29.82,North,0,0.0,0.0,96,0.00,,,1.04,,2013-05-07 07:02:00,
2013-05-07 03:11:00,54.0,53.0,29.82,North,0,0.0,0.0,96,0.00,,,1.04,,2013-05-07 07:11:00,
2013-05-07 03:22:00,54.0,53.0,29.82,North,0,0.0,0.0,96,0.00,,,1.04,,2013-05-07 07:22:00,
2013-05-07 03:53:00,52.0,51.0,29.81,North,0,0.0,0.0,95,0.00,,,1.02,,2013-05-07 07:53:00,
2013-05-07 04:02:00,51.0,50.0,29.81,North,0,0.0,0.0,95,0.01,,,1.01,,2013-05-07 08:02:00,
2013-05-07 04:11:00,51.0,50.0,29.81,North,0,0.0,0.0,95,0.01,,,1.01,,2013-05-07 08:11:00,
2013-05-07 04:21:00,51.0,50.0,29.80,North,0,0.0,0.0,95,0.01,,,1.01,,2013-05-07 08:21:00,
2013-05-07 04:32:00,50.0,49.0,29.81,North,0,0.0,0.0,95,0.01,,,1.01,,2013-05-07 08:32:00,
2013-05-07 04:42:00,50.0,49.0,29.81,North,0,0.0,0.0,95,0.01,,,1.01,,2013-05-07 08:42:00,
2013-05-07 04:52:00,50.0,49.0,29.80,North,0,0.0,0.0,95,0.01,,,1.01,,2013-05-07 08:52:00,
2013-05-07 05:01:00,50.0,49.0,29.81,North,0,0.0,0.0,95,0.01,,,1.01,,2013-05-07 09:01:00,
2013-05-07 05:11:00,50.0,49.0,29.81,North,0,0.0,0.0,95,0.01,,,1.01,,2013-05-07 09:11:00,
2013-05-07 05:22:00,49.0,48.0,29.80,North,0,0.0,0.0,95,0.00,,,1.00,,2013-05-07 09:22:00,
2013-05-07 05:33:00,49.0,48.0,29.80,North,0,0.0,0.0,95,0.00,,,1.00,,2013-05-07 09:33:00,
2013-05-07 05:43:00,49.0,48.0,29.80,North,0,0.0,0.0,95,0.00,,,1.00,,2013-05-07 09:43:00,
2013-05-07 05:52:00,49.0,48.0,29.80,North,0,0.0,0.0,95,0.00,,,1.00,,2013-05-07 09:52:00,
2013-05-07 06:23:00,49.0,48.0,29.81,North,0,0.0,0.0,96,0.00,,,1.00,,2013-05-07 10:23:00,
2013-05-07 06:32:00,49.0,48.0,29.82,North,0,0.0,0.0,96,0.00,,,1.00,,2013-05-07 10:32:00,
2013-05-07 06:42:00,49.0,48.0,29.82,North,0,0.0,0.0,96,0.00,,,1.00,,2013-05-07 10:42:00,
2013-05-07 06:52:00,49.0,48.0,29.82,North,0,0.0,0.0,96,0.00,,,1.00,,2013-05-07 10:52:00,
2013-05-07 07:02:00,50.0,49.0,29.82,North,0,0.0,0.0,97,0.00,,,1.00,,2013-05-07 11:02:00,
2013-05-07 07:12:00,50.0,49.0,29.82,North,0,0.0,0.0,97,0.00,,,1.00,,2013-05-07 11:12:00,
2013-05-07 07:22:00,51.0,50.0,29.83,North,0,0.0,0.0,97,0.00,,,1.00,,2013-05-07 11:22:00,
2013-05-07 07:32:00,51.0,50.0,29.83,North,0,0.0,0.0,97,0.00,,,1.00,,2013-05-07 11:32:00,
2013-05-07 07:42:00,51.0,50.0,29.83,North,0,0.0,0.0,97,0.00,,,1.00,,2013-05-07 11:42:00,
2013-05-07 07:52:00,51.0,50.0,29.83,North,0,0.0,0.0,97,0.00,,,1.00,,2013-05-07 11:52:00,
2013-05-07 08:02:00,53.0,52.0,29.83,North,0,0.0,1.0,98,0.00,,,0.97,,2013-05-07 12:02:00,
2013-05-07 08:12:00,53.0,52.0,29.83,North,0,0.0,1.0,98,0.00,,,0.97,,2013-05-07 12:12:00,
2013-05-07 08:22:00,53.0,52.0,29.83,North,0,0.0,1.0,98,0.00,,,0.97,,2013-05-07 12:22:00,
2013-05-07 08:32:00,55.0,54.0,29.83,North,0,0.0,4.0,98,0.00,,,0.96,,2013-05-07 12:32:00,
2013-05-07 08:42:00,55.0,54.0,29.83,North,0,0.0,4.0,98,0.00,,,0.96,,2013-05-07 12:42:00,
2013-05-07 08:52:00,55.0,54.0,29.83,North,0,0.0,4.0,98,0.00,,,0.96,,2013-05-07 12:52:00,
2013-05-07 09:02:00,54.0,53.0,29.84,North,0,0.0,2.0,98,0.00,,,0.95,,2013-05-07 13:02:00,
2013-05-07 09:11:00,54.0,53.0,29.84,North,0,0.0,2.0,98,0.00,,,0.95,,2013-05-07 13:11:00,
2013-05-07 09:22:00,54.0,53.0,29.84,North,0,0.0,2.0,98,0.00,,,0.95,,2013-05-07 13:22:00,
2013-05-07 09:32:00,55.0,54.0,29.85,North,0,0.0,2.0,98,0.00,,,0.93,,2013-05-07 13:32:00,
2013-05-07 09:42:00,55.0,54.0,29.85,North,0,0.0,2.0,98,0.00,,,0.93,,2013-05-07 13:42:00,
2013-05-07 09:52:00,56.0,55.0,29.85,North,0,0.0,2.0,98,0.00,,,0.92,,2013-05-07 13:52:00,
2013-05-07 10:02:00,56.0,55.0,29.86,North,0,0.0,2.0,98,0.00,,,0.90,,2013-05-07 14:02:00,
2013-05-07 10:11:00,56.0,55.0,29.86,North,0,0.0,2.0,98,0.00,,,0.90,,2013-05-07 14:11:00,
2013-05-07 10:21:00,56.0,55.0,29.86,North,0,0.0,2.0,98,0.00,,,0.90,,2013-05-07 14:21:00,
2013-05-07 10:32:00,57.0,56.0,29.87,SSW,196,1.0,2.0,97,0.00,,,0.84,,2013-05-07 14:32:00,
2013-05-07 10:42:00,57.0,56.0,29.87,SSW,196,1.0,2.0,97,0.00,,,0.84,,2013-05-07 14:42:00,
2013-05-07 10:52:00,57.0,56.0,29.87,SSW,196,1.0,2.0,97,0.00,,,0.84,,2013-05-07 14:52:00,
2013-05-07 11:01:00,59.0,57.0,29.87,North,0,0.0,2.0,92,0.00,,,0.84,,2013-05-07 15:01:00,
2013-05-07 11:12:00,59.0,57.0,29.87,North,0,0.0,2.0,92,0.00,,,0.84,,2013-05-07 15:12:00,
2013-05-07 11:22:00,61.0,59.0,29.87,North,0,0.0,2.0,93,0.00,,,0.84,,2013-05-07 15:22:00,
2013-05-07 11:33:00,61.0,57.0,29.87,North,0,0.0,5.0,88,0.00,,,0.82,,2013-05-07 15:33:00,
2013-05-07 11:42:00,61.0,57.0,29.87,North,0,0.0,5.0,88,0.00,,,0.82,,2013-05-07 15:42:00,
2013-05-07 11:53:00,61.0,57.0,29.87,North,0,0.0,5.0,88,0.00,,,0.82,,2013-05-07 15:53:00,
2013-05-07 12:03:00,62.0,59.0,29.87,North,0,0.0,4.0,89,0.00,,,0.82,,2013-05-07 16:03:00,
2013-05-07 12:12:00,62.0,59.0,29.87,North,0,0.0,4.0,89,0.00,,,0.82,,2013-05-07 16:12:00,
2013-05-07 12:22:00,62.0,59.0,29.87,North,0,0.0,4.0,89,0.00,,,0.82,,2013-05-07 16:22:00,
2013-05-07 12:32:00,63.0,57.0,29.86,South,181,1.0,7.0,81,0.00,,,0.81,,2013-05-07 16:32:00,
2013-05-07 12:42:00,63.0,57.0,29.86,South,181,1.0,7.0,81,0.00,,,0.81,,2013-05-07 16:42:00,
2013-05-07 12:52:00,63.0,57.0,29.86,South,181,1.0,7.0,81,0.00,,,0.81,,2013-05-07 16:52:00,
2013-05-07 13:01:00,65.0,57.0,29.85,SW,224,2.0,5.0,76,0.00,,,0.65,,2013-05-07 17:01:00,
2013-05-07 13:12:00,65.0,57.0,29.85,SW,224,2.0,5.0,76,0.00,,,0.65,,2013-05-07 17:12:00,
2013-05-07 13:21:00,64.0,55.0,29.85,North,0,0.0,9.0,72,0.00,,,0.22,,2013-05-07 17:21:00,
2013-05-07 13:32:00,65.0,55.0,29.85,SSE,156,2.0,6.0,70,0.00,,,0.06,,2013-05-07 17:32:00,
2013-05-07 13:41:00,65.0,55.0,29.85,SSE,156,2.0,6.0,70,0.00,,,0.06,,2013-05-07 17:41:00,
2013-05-07 13:52:00,65.0,55.0,29.85,SSE,156,2.0,6.0,70,0.00,,,0.06,,2013-05-07 17:52:00,
2013-05-07 14:01:00,65.0,53.0,29.85,North,0,0.0,4.0,66,0.00,,,0.01,,2013-05-07 18:01:00,
2013-05-07 14:11:00,65.0,53.0,29.85,North,0,0.0,4.0,66,0.00,,,0.01,,2013-05-07 18:11:00,
2013-05-07 14:21:00,64.0,52.0,29.85,West,269,2.0,7.0,66,0.00,,,0.01,,2013-05-07 18:21:00,
2013-05-07 14:31:00,64.0,52.0,29.85,West,269,2.0,7.0,66,0.00,,,0.01,,2013-05-07 18:31:00,
2013-05-07 14:42:00,64.0,52.0,29.85,West,269,2.0,7.0,66,0.00,,,0.01,,2013-05-07 18:42:00,
2013-05-07 14:51:00,64.0,52.0,29.85,West,269,2.0,7.0,66,0.00,,,0.01,,2013-05-07 18:51:00,
2013-05-07 15:02:00,69.0,53.0,29.83,South,173,1.0,9.0,57,0.00,,,0.01,,2013-05-07 19:02:00,
2013-05-07 15:11:00,69.0,53.0,29.83,South,173,1.0,9.0,57,0.00,,,0.01,,2013-05-07 19:11:00,
2013-05-07 15:21:00,67.0,54.0,29.83,South,180,1.0,7.0,63,0.00,,,0.01,,2013-05-07 19:21:00,
2013-05-07 15:32:00,69.0,50.0,29.82,North,0,0.0,8.0,51,0.00,,,0.01,,2013-05-07 19:32:00,
2013-05-07 15:42:00,69.0,50.0,29.82,North,0,0.0,8.0,51,0.00,,,0.01,,2013-05-07 19:42:00,
2013-05-07 15:52:00,70.0,51.0,29.82,SSE,148,4.0,6.0,51,0.00,,,0.01,,2013-05-07 19:52:00,
2013-05-07 16:02:00,68.0,52.0,29.82,SSE,150,3.0,5.0,56,0.00,,,0.01,,2013-05-07 20:02:00,
2013-05-07 16:12:00,68.0,52.0,29.82,SSE,150,3.0,5.0,56,0.00,,,0.01,,2013-05-07 20:12:00,
2013-05-07 16:22:00,69.0,55.0,29.82,North,0,0.0,3.0,61,0.00,,,0.01,,2013-05-07 20:22:00,
2013-05-07 16:32:00,69.0,50.0,29.81,SSE,168,2.0,12.0,50,0.00,,,0.01,,2013-05-07 20:32:00,
2013-05-07 16:42:00,69.0,50.0,29.81,SSE,168,2.0,12.0,50,0.00,,,0.01,,2013-05-07 20:42:00,
2013-05-07 16:51:00,70.0,52.0,29.81,South,170,4.0,10.0,52,0.00,,,0.01,,2013-05-07 20:51:00,
2013-05-07 17:02:00,70.0,52.0,29.81,SE,140,2.0,6.0,52,0.00,,,0.01,,2013-05-07 21:02:00,
2013-05-07 17:11:00,70.0,52.0,29.81,SE,140,2.0,6.0,52,0.00,,,0.01,,2013-05-07 21:11:00,
2013-05-07 17:22:00,68.0,52.0,29.81,North,0,0.0,6.0,56,0.00,,,0.01,,2013-05-07 21:22:00,
2013-05-07 17:33:00,68.0,52.0,29.82,South,186,1.0,5.0,56,0.00,,,0.01,,2013-05-07 21:33:00,
2013-05-07 17:42:00,68.0,52.0,29.82,South,186,1.0,5.0,56,0.00,,,0.01,,2013-05-07 21:42:00,
2013-05-07 17:52:00,68.0,52.0,29.82,WSW,253,1.0,5.0,57,0.00,,,0.01,,2013-05-07 21:52:00,
2013-05-07 18:02:00,68.0,52.0,29.82,WSW,253,1.0,5.0,57,0.00,,,0.01,,2013-05-07 22:02:00,
2013-05-07 18:13:00,68.0,52.0,29.82,WSW,253,1.0,5.0,57,0.00,,,0.01,,2013-05-07 22:13:00,
2013-05-07 18:22:00,68.0,52.0,29.82,WSW,253,1.0,5.0,57,0.00,,,0.01,,2013-05-07 22:22:00,
2013-05-07 18:33:00,64.0,55.0,29.83,North,0,0.0,6.0,73,0.00,,,0.01,,2013-05-07 22:33:00,
2013-05-07 18:42:00,64.0,56.0,29.84,North,0,0.0,5.0,74,0.00,,,0.01,,2013-05-07 22:42:00,
2013-05-07 18:52:00,64.0,56.0,29.84,North,0,0.0,5.0,74,0.00,,,0.01,,2013-05-07 22:52:00,
2013-05-07 19:02:00,63.0,55.0,29.84,North,0,0.0,5.0,76,0.00,,,0.01,,2013-05-07 23:02:00,
2013-05-07 19:12:00,63.0,55.0,29.84,North,0,0.0,5.0,76,0.00,,,0.01,,2013-05-07 23:12:00,
2013-05-07 19:21:00,62.0,54.0,29.84,SSW,199,2.0,6.0,74,0.00,,,0.01,,2013-05-07 23:21:00,
2013-05-07 19:32:00,61.0,53.0,29.84,SSE,154,1.0,5.0,76,0.00,,,0.01,,2013-05-07 23:32:00,
2013-05-07 19:42:00,61.0,53.0,29.84,SSE,154,1.0,5.0,76,0.00,,,0.01,,2013-05-07 23:42:00,
2013-05-07 19:52:00,61.0,53.0,29.84,SSE,154,1.0,5.0,76,0.00,,,0.01,,2013-05-07 23:52:00,
2013-05-07 20:02:00,59.0,52.0,29.84,North,0,0.0,1.0,79,0.00,,,0.01,,2013-05-08 00:02:00,
2013-05-07 20:12:00,59.0,53.0,29.85,North,0,0.0,0.0,81,0.00,,,0.01,,2013-05-08 00:12:00,
2013-05-07 20:22:00,59.0,53.0,29.85,North,0,0.0,0.0,81,0.00,,,0.01,,2013-05-08 00:22:00,
2013-05-07 20:32:00,58.0,53.0,29.85,North,0,0.0,0.0,84,0.00,,,0.01,,2013-05-08 00:32:00,
2013-05-07 20:42:00,58.0,53.0,29.85,North,0,0.0,0.0,84,0.00,,,0.01,,2013-05-08 00:42:00,
2013-05-07 20:51:00,58.0,53.0,29.85,North,0,0.0,0.0,84,0.00,,,0.01,,2013-05-08 00:51:00,
2013-05-07 21:02:00,55.0,52.0,29.87,North,0,0.0,2.0,91,0.00,,,0.01,,2013-05-08 01:02:00,
2013-05-07 21:11:00,55.0,52.0,29.87,North,0,0.0,2.0,91,0.00,,,0.01,,2013-05-08 01:11:00,
2013-05-07 21:22:00,55.0,52.0,29.88,North,0,0.0,0.0,91,0.00,,,0.01,,2013-05-08 01:22:00,
2013-05-07 21:32:00,55.0,52.0,29.88,North,0,0.0,0.0,90,0.00,,,0.01,,2013-05-08 01:32:00,
2013-05-07 21:42:00,55.0,52.0,29.88,North,0,0.0,0.0,91,0.00,,,0.01,,2013-05-08 01:42:00,
2013-05-07 21:52:00,55.0,52.0,29.88,North,0,0.0,0.0,91,0.00,,,0.01,,2013-05-08 01:52:00,
2013-05-07 22:02:00,54.0,52.0,29.88,North,0,0.0,0.0,92,0.00,,,0.01,,2013-05-08 02:02:00,
2013-05-07 22:12:00,54.0,52.0,29.88,North,0,0.0,0.0,92,0.00,,,0.01,,2013-05-08 02:12:00,
2013-05-07 22:22:00,54.0,52.0,29.89,North,0,0.0,0.0,93,0.00,,,0.01,,2013-05-08 02:22:00,
2013-05-07 22:32:00,53.0,51.0,29.89,North,0,0.0,0.0,94,0.00,,,0.01,,2013-05-08 02:32:00,
2013-05-07 22:42:00,53.0,51.0,29.89,North,0,0.0,0.0,94,0.00,,,0.01,,2013-05-08 02:42:00,
2013-05-07 22:52:00,53.0,51.0,29.89,North,0,0.0,0.0,94,0.00,,,0.01,,2013-05-08 02:52:00,
2013-05-07 23:02:00,53.0,51.0,29.89,North,0,0.0,0.0,94,0.00,,,0.01,,2013-05-08 03:02:00,
2013-05-07 23:11:00,53.0,51.0,29.89,North,0,0.0,0.0,94,0.00,,,0.01,,2013-05-08 03:11:00,
2013-05-07 23:21:00,53.0,51.0,29.89,North,0,0.0,0.0,93,0.00,,,0.01,,2013-05-08 03:21:00,
2013-05-07 23:33:00,53.0,51.0,29.89,North,0,0.0,0.0,93,0.00,,,0.01,,2013-05-08 03:33:00,
2013-05-07 23:43:00,53.0,51.0,29.89,North,0,0.0,0.0,93,0.00,,,0.01,,2013-05-08 03:43:00,
2013-05-07 23:52:00,53.0,51.0,29.89,North,0,0.0,0.0,93,0.00,,,0.01,,2013-05-08 03:52:00,